Orbital Elements at Epoch 2459200.5 (2020-Dec-17.0) TDB
Reference: JPL 28 (heliocentric ecliptic J2000)
Element | Value | Uncertainty (1-sigma) | Units |
e | .08760577343979176 | 3.6132e-08 | |
a | 2.895955476114021 | 1.113e-08 | au |
q | 2.642253056781852 | 1.0795e-07 | au |
i | 2.999214429140941 | 3.2115e-06 | deg |
node | 127.2905667200924 | 6.284e-05 | deg |
peri | 223.7783908136837 | 6.5588e-05 | deg |
M | 15.69435090177849 | 1.7377e-05 | deg |
tp | 2459122.025762341900 (2020-Sep-29.52576234) | 8.6991e-05 | TDB |
period | 1800.056958947862 4.93 | 1.0377e-05 2.841e-08 | d yr |
n | .1999936714282758 | 1.1529e-09 | deg/d |
Q | 3.14965789544619 | 1.2105e-08 | au |
|
| | Orbit Determination Parameters
Additional Information
|